Helicity
11 5 2 10 23 20 36 69 90 116 109 120 114 81 107 55 46 -7 -17 -14 -24 -30 -15 -20 18 9 -4 5 14 11 22 36 26 64 16 -18 31 50 85 93 97 91 182 173 285
10 9 2 8 17 19 34 65 89 118 115 111 100 86 87 44 1 -26 -22 -18 -16 -7 -2 -2 16 24 14 13 38 60 57 33 37 -2 -20 -51 12 -63 76 68 112 83 210 254 326
19 10 8 5 18 22 40 65 89 108 129 95 79 73 68 39 9 -19 23 -14 8 -1 -16 -6 -6 3 24 27 42 74 89 51 34 -8 21 3 -41 29 34 76 140 135 208 306 351
13 8 3 10 25 34 58 76 93 112 118 103 66 67 72 22 19 -7 19 -0 8 -9 -10 4 13 18 27 37 33 100 115 94 50 -3 27 31 50 51 81 164 77 67 171 347 351
4 1 4 13 27 48 67 81 97 104 109 116 73 54 28 27 5 33 28 11 9 3 -10 14 25 24 16 25 11 70 76 30 27 34 57 83 112 107 173 227 106 29 87 225 342
-9 -4 3 22 36 59 72 77 85 104 106 104 75 50 33 14 21 47 41 40 10 4 12 21 25 17 12 18 41 39 24 29 29 82 56 85 79 107 119 107 53 34 34 141 265
4 2 7 7 33 62 65 78 78 89 101 92 64 37 27 -2 37 36 29 40 47 41 34 49 48 48 40 29 26 34 39 56 40 18 34 75 100 156 97 34 39 52 37 77 197
1 1 13 19 25 35 76 65 75 82 87 73 37 37 -9 38 89 96 59 64 53 57 47 45 55 35 49 42 42 69 64 60 -3 47 29 63 70 59 52 68 -9 68 124 120 212
11 16 4 10 16 37 66 85 80 72 61 40 40 33 1 58 64 51 72 43 54 51 36 37 49 30 51 67 65 75 70 50 35 20 74 55 65 140 138 68 21 24 54 57 39
22 17 14 8 25 39 69 68 55 63 34 37 52 42 33 18 34 52 52 53 42 35 36 47 48 47 78 89 61 62 44 39 36 22 83 93 123 157 133 70 11 36 65 79 84
34 31 35 47 28 36 41 34 37 35 46 26 7 52 35 57 40 32 28 55 45 53 44 34 78 45 63 51 42 48 47 42 60 69 32 78 91 106 95 37 73 85 108 87 83
54 48 47 49 43 30 22 20 21 13 -5 10 1 28 69 77 51 44 72 46 54 40 48 42 54 74 26 29 7 15 35 34 14 39 6 11 45 99 51 76 45 50 51 46 58
65 56 56 49 46 30 21 10 18 20 2 34 43 78 110 120 58 26 93 39 24 40 8 38 9 33 38 9 20 31 48 50 38 11 43 2 38 66 111 107 117 71 25 12 19
79 73 63 72 57 43 21 22 27 35 63 35 62 55 102 111 38 100 79 46 26 2 11 9 30 46 34 30 44 37 58 55 49 24 43 29 27 67 103 171 193 126 73 36 40
81 79 67 56 78 59 32 29 17 35 78 32 41 36 26 51 27 19 43 47 9 14 46 -3 35 41 31 46 60 36 53 60 75 52 56 35 53 12 125 221 147 133 154 89 61
81 76 66 54 44 26 25 28 42 110 73 46 33 28 46 10 21 28 27 26 15 21 29 60 57 41 44 44 49 40 40 66 90 76 59 34 54 8 99 162 134 210 121 90 66
88 64 51 71 39 37 35 68 136 108 74 51 41 42 19 28 25 28 30 34 29 44 45 43 71 84 54 61 58 62 70 78 94 87 66 64 72 76 66 60 157 100 103 64 15
87 60 41 49 39 49 82 153 123 104 99 53 34 24 27 51 14 21 28 36 41 50 47 43 31 65 52 55 56 49 79 102 96 107 122 65 73 72 49 95 55 65 44 32 6
81 72 64 39 47 70 126 152 102 104 74 64 86 65 42 42 47 56 29 47 48 85 63 65 46 64 83 78 76 63 104 79 138 131 181 87 76 100 72 111 91 80 43 9 -12
83 67 61 46 70 116 139 90 85 92 88 69 61 55 41 45 57 52 37 56 88 102 91 69 57 56 74 78 83 98 76 139 147 103 94 117 140 85 120 87 75 36 -26 -73 -13
88 102 74 78 124 166 114 84 77 45 55 66 68 78 58 61 50 64 64 93 92 92 100 95 95 67 92 75 100 131 121 122 108 119 103 96 107 74 69 -8 -92 -115 -77 -61 83
105 119 73 118 172 141 95 85 70 52 54 80 75 75 84 96 79 93 75 110 112 84 85 94 119 95 61 73 97 122 122 125 129 73 111 113 186 4 102 3 -107 -99 -30 63 122
107 107 108 125 144 116 113 82 62 61 43 51 74 60 100 78 79 62 126 126 130 113 99 106 137 139 105 102 96 135 121 126 123 123 168 133 115 94 13 -56 -103 -3 97 107 79
134 126 147 135 124 100 102 89 85 69 75 84 55 87 94 78 82 91 125 106 109 130 146 146 168 177 145 57 72 38 53 97 133 171 186 312 252 129 68 30 99 170 123 90 82
153 121 97 102 118 111 130 95 79 94 64 87 88 101 87 69 72 82 131 155 171 131 144 161 155 104 63 51 54 43 21 51 84 103 95 150 153 122 104 77 157 150 126 92 80
140 153 143 92 85 89 111 79 71 83 109 86 91 40 59 87 89 103 104 151 135 137 132 161 77 76 31 28 21 25 6 37 60 83 115 97 82 101 189 182 146 96 64 87 77
151 167 135 84 111 101 93 76 57 75 65 89 39 62 62 70 108 89 120 172 188 157 144 123 100 76 -28 39 23 26 59 101 37 81 110 122 122 163 168 166 127 94 122 118 140
Wind_Speed
35 34 34 38 41 39 39 37 38 39 38 38 37 36 36 37 36 29 27 29 29 33 33 34 27 24 28 26 26 27 18 13 14 14 7 15 26 20 30 19 30 12 21 30 11
34 36 35 39 41 39 38 37 39 40 40 38 38 38 38 38 31 27 30 27 31 32 32 36 40 11 20 22 22 24 17 13 14 4 7 14 36 23 16 9 15 7 37 21 6
36 37 39 38 41 38 36 38 39 40 41 40 40 40 39 38 29 27 17 27 30 32 36 39 41 43 21 21 11 17 8 8 22 30 15 13 32 34 10 29 15 8 7 7 2
35 36 36 39 41 38 37 39 40 41 42 41 41 41 43 31 23 26 19 28 31 34 39 40 40 42 37 27 25 9 5 3 12 2 21 13 25 11 12 32 13 8 5 4 6
33 32 35 39 39 37 38 41 41 42 43 44 42 41 33 31 30 21 24 31 35 38 40 41 42 42 46 43 50 26 15 15 8 4 11 22 13 5 25 26 26 17 7 7 13
35 36 38 37 36 38 40 41 41 43 44 45 44 41 32 36 26 17 25 31 38 40 43 40 38 42 48 46 43 43 45 7 16 30 8 13 7 33 14 7 22 14 4 6 10
38 39 36 32 36 39 40 42 42 45 46 47 45 38 36 32 30 20 24 34 37 41 43 40 41 40 44 46 44 46 58 63 33 36 29 41 35 21 7 16 38 40 9 10 12
34 33 36 34 33 37 44 42 45 47 48 48 39 33 42 41 29 24 24 31 33 37 38 39 40 41 39 43 48 44 39 44 48 39 37 40 53 40 45 61 78 53 20 15 15
33 33 30 31 34 40 44 47 47 49 46 41 34 33 47 33 29 23 19 31 24 32 34 37 38 38 38 40 47 40 45 50 57 47 45 42 67 55 58 63 67 58 54 50 43
31 30 31 33 37 42 45 48 46 47 35 33 36 41 39 33 25 24 27 25 26 29 35 35 34 34 33 35 46 51 56 55 63 55 45 51 60 82 62 46 46 51 55 55 55
30 31 34 37 36 40 39 34 34 35 36 34 28 29 31 27 22 23 23 27 30 32 36 30 33 30 36 33 34 42 50 56 52 53 55 52 73 77 57 40 41 48 52 56 60
33 33 37 38 37 37 36 29 29 32 39 47 53 50 36 27 32 25 19 29 29 33 35 35 12 11 28 40 50 48 48 52 52 43 59 65 70 54 31 30 38 43 49 53 59
36 37 39 37 38 33 30 34 33 37 37 42 37 32 30 24 34 37 11 27 32 36 34 34 29 26 34 43 41 40 39 42 45 58 51 60 43 40 30 31 37 43 45 50 56
38 38 38 37 31 33 30 31 31 31 37 38 33 29 25 26 40 25 17 24 30 33 28 30 28 27 34 36 37 41 36 41 51 59 51 51 42 37 26 31 37 42 48 50 56
40 39 39 32 36 30 27 29 29 27 44 26 26 26 23 20 26 24 26 25 28 28 32 33 28 33 36 35 34 33 39 42 43 43 46 40 36 33 21 30 34 39 46 50 57
41 40 38 34 35 35 27 26 27 29 42 28 25 23 23 24 27 26 25 28 32 35 32 18 30 32 30 31 32 39 46 47 35 38 42 36 36 37 29 27 31 38 45 49 52
41 38 31 35 28 28 23 23 30 35 28 27 29 24 22 22 27 26 27 29 30 34 35 38 24 27 30 33 35 41 47 45 44 44 43 36 46 36 31 30 31 38 41 46 47
41 32 33 35 30 26 22 27 38 38 30 26 23 22 26 23 32 28 35 39 27 31 40 37 36 21 23 30 36 35 35 42 49 48 48 45 39 44 42 27 31 38 40 44 48
35 29 31 34 28 24 23 37 35 35 27 21 24 24 29 33 35 32 36 36 34 19 30 37 34 28 29 33 34 34 39 35 43 43 43 33 31 42 36 29 41 42 44 45 46
30 27 32 23 22 23 30 40 36 30 28 27 28 20 32 32 32 31 38 37 29 29 28 34 39 33 31 32 35 34 33 40 37 43 46 37 40 30 39 39 42 52 51 46 50
32 32 29 26 25 27 41 37 42 36 33 32 33 34 39 35 38 36 41 36 31 30 30 32 34 35 33 30 32 33 32 32 31 31 37 41 34 22 35 44 52 51 54 50 56
35 40 29 27 31 35 41 38 42 38 37 39 41 44 43 47 45 44 47 37 30 25 31 32 35 41 36 37 32 23 28 27 30 34 30 34 26 30 35 52 58 55 57 58 61
39 39 34 31 43 42 44 42 49 45 43 39 43 45 46 50 52 48 40 33 29 31 33 31 35 45 43 36 32 28 28 28 32 34 25 25 24 29 63 79 67 57 56 60 65
40 46 39 39 41 41 44 49 48 46 49 45 46 45 46 53 51 48 38 33 31 35 32 33 34 34 36 34 40 44 40 35 30 28 26 17 26 32 67 76 55 54 58 66 73
45 49 40 44 54 49 42 46 50 51 47 44 53 49 48 53 55 53 44 37 38 33 33 35 40 34 34 44 43 40 38 33 26 26 22 28 33 35 58 56 50 57 67 74 79
53 51 45 47 44 40 53 56 54 50 45 49 56 51 53 55 49 44 45 41 41 34 32 35 39 38 44 47 42 40 38 36 26 20 24 25 30 55 44 51 60 67 75 82 76
52 48 49 55 53 49 52 52 60 61 61 53 57 58 60 54 40 42 41 40 38 38 33 32 35 42 48 42 55 50 33 29 33 32 36 44 50 54 61 67 70 78 83 81 84
Wind_Direction
295 305 312 299 284 291 283 281 276 271 272 269 274 282 277 281 283 297 327 313 321 311 333 335 33 102 52 60 55 43 95 124 147 78 132 52 17 29 357 0 345 17 341 334 34
302 298 307 299 290 292 284 286 277 273 272 277 280 282 285 291 306 317 302 321 321 335 346 342 303 138 62 44 45 43 56 91 94 111 221 226 353 248 2 232 216 355 325 341 22
295 297 292 302 293 294 287 285 280 275 273 281 286 292 294 295 325 324 330 320 328 332 331 325 323 288 22 27 72 40 126 155 223 238 16 9 249 355 349 239 226 243 327 346 338
298 301 304 295 288 287 280 278 279 276 274 281 288 292 288 307 352 335 339 323 328 328 324 327 327 318 333 356 7 25 70 168 225 77 9 7 1 342 246 243 251 286 293 219 228
303 312 306 291 288 283 277 275 277 277 277 278 288 298 311 311 315 350 339 323 322 326 322 322 325 322 311 324 315 354 3 359 233 231 358 359 238 284 253 248 237 225 336 228 222
297 297 294 287 285 277 275 278 281 277 276 279 288 295 311 302 330 19 345 331 320 320 316 320 327 323 317 320 326 332 332 302 250 242 353 358 352 1 248 9 8 2 258 240 235
289 288 297 302 279 274 281 280 282 279 277 277 287 302 304 308 317 356 347 329 325 320 317 321 324 324 322 323 328 329 321 301 358 355 360 351 348 2 359 4 353 345 300 296 250
298 303 281 283 291 289 269 281 280 279 275 281 297 310 296 298 318 337 342 337 338 330 324 322 325 323 325 326 325 332 338 336 343 353 353 352 332 351 348 333 308 334 328 300 285
299 296 302 297 293 281 272 269 272 271 280 286 301 307 295 316 321 341 352 338 354 342 340 332 327 325 328 330 328 338 332 329 329 340 338 340 321 337 339 333 326 341 346 341 336
301 304 297 298 283 272 266 260 272 272 293 301 296 298 298 313 339 352 343 349 351 352 339 335 336 337 337 341 325 325 324 327 324 333 337 331 324 313 334 346 351 351 355 352 345
297 296 292 283 287 276 274 286 291 289 284 284 304 300 314 330 359 350 4 344 340 336 331 342 331 337 336 342 342 336 333 328 334 337 335 337 322 303 323 349 5 2 1 360 358
284 288 280 281 286 288 281 296 295 296 297 279 268 275 304 324 319 337 3 338 335 325 327 332 351 1 350 336 328 330 334 335 337 352 336 332 327 334 9 26 19 14 8 5 3
279 277 275 281 280 292 293 288 292 293 310 301 300 300 305 314 308 309 11 335 327 320 324 322 339 357 339 336 343 346 347 347 346 340 347 339 349 359 20 30 19 10 10 8 4
278 275 276 278 294 286 294 295 301 312 311 303 305 316 312 315 300 320 344 334 325 328 343 340 350 351 346 348 351 347 357 352 344 340 347 352 352 356 11 10 10 7 6 7 4
278 276 274 283 283 292 302 300 303 323 298 317 313 320 325 317 324 329 318 324 314 328 332 338 351 347 345 350 356 357 354 349 349 353 353 4 5 5 11 2 4 5 4 360 356
280 278 275 282 281 283 303 308 311 310 292 315 319 322 319 306 312 325 323 316 320 320 327 346 343 352 360 2 360 351 348 348 1 360 355 5 7 360 357 357 359 1 358 358 360
284 277 278 279 293 290 307 310 293 293 313 313 306 313 315 319 313 312 313 315 321 324 328 334 349 354 358 355 356 353 349 349 347 349 349 360 347 347 352 354 359 360 1 360 5
281 282 279 275 283 294 302 291 282 293 298 311 327 317 308 313 299 303 306 306 316 319 322 333 339 6 15 0 354 356 360 349 339 341 341 344 345 352 355 15 12 2 8 8 3
283 282 281 273 281 289 287 276 286 291 306 312 316 314 302 294 298 302 303 306 320 330 330 333 341 356 357 356 359 360 348 358 343 344 347 1 7 2 23 26 10 13 7 4 3
281 282 280 278 279 282 277 275 283 299 302 307 303 313 300 293 297 300 299 311 317 322 329 333 331 342 351 353 353 349 358 348 353 348 347 355 347 348 3 12 12 358 358 359 358
276 276 281 274 274 275 267 274 279 290 296 297 298 298 292 292 290 291 299 309 322 324 330 330 333 340 347 348 346 349 352 354 358 357 354 356 1 22 2 358 353 356 357 360 354
273 268 280 270 264 272 267 275 280 284 292 292 290 286 288 285 285 290 289 306 320 334 328 332 336 329 334 340 344 350 347 353 349 349 353 353 346 1 357 347 348 350 351 352 352
269 270 278 269 263 264 271 275 275 279 283 290 287 284 284 281 281 287 297 310 316 320 326 335 332 329 335 342 352 350 351 350 346 343 339 344 357 7 324 316 341 347 349 350 350
269 265 271 267 272 271 266 271 274 277 279 283 285 282 282 278 278 288 298 307 317 319 327 330 327 322 321 330 329 325 323 327 331 332 333 276 265 277 326 327 344 347 347 346 345
263 265 268 267 262 263 272 275 270 272 278 283 277 277 278 277 278 281 291 303 310 320 324 324 320 321 320 320 322 323 318 319 308 302 297 277 320 322 333 339 348 346 342 341 340
258 262 265 270 270 267 261 267 271 276 274 279 274 277 273 275 281 295 293 296 302 314 318 323 321 326 322 321 322 322 320 319 314 304 304 303 312 335 348 345 341 341 339 339 341
260 266 264 265 265 265 267 271 270 271 273 278 274 271 272 277 293 294 302 306 310 310 312 316 319 322 319 330 326 323 336 343 339 336 333 330 334 339 335 335 337 336 337 338 336